Tracking 29892 objects as of 21-Nov-2024
HD Live streaming from Space Station
objects crossing your sky now

FENGYUN 1C DEB

Track FENGYUN 1C DEB now!
10-day predictions


NORAD ID: 37437
Int'l Code: 1999-025EHF
Perigee: 757.8 km
Apogee: 924.5 km
Inclination: 98.6 °
Period: 101.6 minutes
Semi major axis: 7212 km
RCS: 0.0107 m2 (small)
Launch date: May 10, 1999
Source: People's Republic of China (PRC)
Launch site: Taiyaun Space Center, China (TSC)

Note: This is SATELLITE DEBRIS
Your satellite tracking list
Your tracking list is empty




NASA's NSSDC Master Catalog

Two Line Element Set (TLE):
1 37437U 99025EHF 24320.79662610  .00002112  00000-0  99474-3 0  9999
2 37437  98.5698 319.7072 0115557  98.8990  74.1610 14.17454879584351
Source of the keplerian elements: AFSPC